Year,Month,Day,Hour,Minute,Value (Times are PST for windgust in km/hr)
2018,07,04,01,17,4.80
2018,07,04,01,18,4.80
2018,07,04,01,22,1.60
2018,07,04,01,23,3.20
2018,07,04,01,25,1.60
2018,07,04,02,15,6.40
2018,07,04,02,16,6.40
2018,07,04,02,17,8.10
2018,07,04,02,18,8.10
2018,07,04,02,19,8.10
2018,07,04,02,20,6.40
2018,07,04,02,21,4.80
2018,07,04,02,22,6.40
2018,07,04,02,23,3.20
2018,07,04,02,24,3.20
2018,07,04,02,25,1.60
2018,07,04,02,55,4.80
2018,07,04,02,56,4.80
2018,07,04,02,57,3.20
2018,07,04,02,58,4.80
2018,07,04,03,00,3.20
2018,07,04,03,01,3.20
2018,07,04,03,03,4.80
2018,07,04,03,04,3.20
2018,07,04,03,05,3.20
2018,07,04,03,06,3.20
2018,07,04,03,07,3.20
2018,07,04,03,08,4.80
2018,07,04,03,09,6.40
2018,07,04,03,10,6.40
2018,07,04,03,11,3.20
2018,07,04,03,12,4.80
2018,07,04,03,13,4.80
2018,07,04,03,14,6.40
2018,07,04,03,15,6.40
2018,07,04,03,16,4.80
2018,07,04,03,17,4.80
2018,07,04,03,19,4.80
2018,07,04,03,20,6.40
2018,07,04,03,21,6.40
2018,07,04,03,22,4.80
2018,07,04,03,23,6.40
2018,07,04,03,24,6.40
2018,07,04,03,25,6.40
2018,07,04,03,26,8.10
2018,07,04,03,27,4.80
2018,07,04,03,28,6.40
2018,07,04,03,29,6.40
2018,07,04,03,30,4.80
2018,07,04,03,31,6.40
2018,07,04,03,32,3.20
2018,07,04,03,33,6.40
2018,07,04,03,34,6.40
2018,07,04,03,36,4.80
2018,07,04,03,37,4.80
2018,07,04,03,38,6.40
2018,07,04,03,39,8.10
2018,07,04,03,40,9.60
2018,07,04,03,41,4.80
2018,07,04,03,42,8.10
2018,07,04,03,43,8.10
2018,07,04,03,44,4.80
2018,07,04,03,45,3.20
2018,07,04,03,46,4.80
2018,07,04,03,47,3.20
2018,07,04,03,48,4.80
2018,07,04,03,49,3.20
2018,07,04,03,50,4.80
2018,07,04,03,51,4.80
2018,07,04,03,53,8.10
2018,07,04,03,54,4.80
2018,07,04,03,55,4.80
2018,07,04,03,56,6.40
2018,07,04,03,57,6.40
2018,07,04,03,58,6.40
2018,07,04,03,59,6.40
2018,07,04,04,00,6.40
2018,07,04,04,01,6.40
2018,07,04,04,02,9.60
2018,07,04,04,03,9.60
2018,07,04,04,04,8.10
2018,07,04,04,05,8.10
2018,07,04,04,06,6.40
2018,07,04,04,07,4.80
2018,07,04,04,08,9.60
2018,07,04,04,09,8.10
2018,07,04,04,10,4.80
2018,07,04,04,11,4.80
2018,07,04,04,12,4.80
2018,07,04,04,13,4.80
2018,07,04,04,14,3.20
2018,07,04,04,15,9.60
2018,07,04,04,16,8.10
2018,07,04,04,17,6.40
2018,07,04,04,18,6.40
2018,07,04,04,19,4.80
2018,07,04,04,20,6.40
2018,07,04,04,21,4.80
2018,07,04,04,22,8.10
2018,07,04,04,23,3.20
2018,07,04,04,24,6.40
2018,07,04,04,25,3.20
2018,07,04,04,26,3.20
2018,07,04,04,27,4.80
2018,07,04,04,28,3.20
2018,07,04,04,30,3.20
2018,07,04,04,31,8.10
2018,07,04,04,32,4.80
2018,07,04,04,33,1.60
2018,07,04,04,35,6.40
2018,07,04,04,36,4.80
2018,07,04,04,37,3.20
2018,07,04,04,38,1.60
2018,07,04,04,39,4.80
2018,07,04,04,40,1.60
2018,07,04,04,44,4.80
2018,07,04,04,45,8.10
2018,07,04,04,46,6.40
2018,07,04,04,47,6.40
2018,07,04,04,48,4.80
2018,07,04,04,49,4.80
2018,07,04,04,50,6.40
2018,07,04,04,51,6.40
2018,07,04,04,52,6.40
2018,07,04,04,53,4.80
2018,07,04,04,54,4.80
2018,07,04,04,55,6.40
2018,07,04,04,56,6.40
2018,07,04,04,57,4.80
2018,07,04,04,58,3.20
2018,07,04,04,59,3.20
2018,07,04,05,00,1.60
2018,07,04,05,01,4.80
2018,07,04,05,02,4.80
2018,07,04,05,03,3.20
2018,07,04,05,04,4.80
2018,07,04,05,05,3.20
2018,07,04,05,06,4.80
2018,07,04,05,07,4.80
2018,07,04,05,08,4.80
2018,07,04,05,09,3.20
2018,07,04,05,10,6.40
2018,07,04,05,11,6.40
2018,07,04,05,12,4.80
2018,07,04,05,13,4.80
2018,07,04,05,14,3.20
2018,07,04,05,16,3.20
2018,07,04,05,17,4.80
2018,07,04,05,18,1.60
2018,07,04,05,19,3.20
2018,07,04,05,20,1.60
2018,07,04,05,28,1.60
2018,07,04,05,29,4.80
2018,07,04,05,30,3.20
2018,07,04,05,31,6.40
2018,07,04,05,32,6.40
2018,07,04,05,33,3.20
2018,07,04,05,34,4.80
2018,07,04,05,35,6.40
2018,07,04,05,36,4.80
2018,07,04,05,43,4.80
2018,07,04,05,45,4.80
2018,07,04,05,46,6.40
2018,07,04,05,47,6.40
2018,07,04,05,48,4.80
2018,07,04,05,49,4.80
2018,07,04,05,50,3.20
2018,07,04,05,51,3.20
2018,07,04,05,57,4.80
2018,07,04,05,58,4.80
2018,07,04,05,59,3.20
2018,07,04,06,00,3.20
2018,07,04,06,01,4.80
2018,07,04,06,02,4.80
2018,07,04,06,05,6.40
2018,07,04,06,06,3.20
2018,07,04,06,07,3.20
2018,07,04,06,12,6.40
2018,07,04,06,13,3.20
2018,07,04,06,14,3.20
2018,07,04,06,15,1.60
2018,07,04,06,16,4.80
2018,07,04,06,19,6.40
2018,07,04,06,20,4.80
2018,07,04,06,21,1.60
2018,07,04,06,24,4.80
2018,07,04,06,30,1.60
2018,07,04,06,31,1.60
2018,07,04,06,32,4.80
2018,07,04,06,33,3.20
2018,07,04,06,35,1.60
2018,07,04,06,44,4.80
2018,07,04,06,45,4.80
2018,07,04,06,46,3.20
2018,07,04,07,00,6.40
2018,07,04,07,01,4.80
2018,07,04,07,02,3.20
2018,07,04,07,08,4.80
2018,07,04,07,09,4.80
2018,07,04,07,11,6.40
2018,07,04,07,12,8.10
2018,07,04,07,13,3.20
2018,07,04,07,14,4.80
2018,07,04,07,15,3.20
2018,07,04,07,18,1.60
2018,07,04,07,21,3.20
2018,07,04,07,25,4.80
2018,07,04,07,36,3.20
2018,07,04,07,37,3.20
2018,07,04,07,39,8.10
2018,07,04,07,40,8.10
2018,07,04,07,41,9.60
2018,07,04,07,42,8.10
2018,07,04,07,43,6.40
2018,07,04,07,44,4.80
2018,07,04,07,45,3.20
2018,07,04,07,47,16.10
2018,07,04,07,48,8.10
2018,07,04,07,49,3.20
2018,07,04,07,50,1.60
2018,07,04,07,51,3.20
2018,07,04,07,52,6.40
2018,07,04,07,53,12.90
2018,07,04,07,54,3.20
2018,07,04,07,55,8.10
2018,07,04,07,56,6.40
2018,07,04,07,57,3.20
2018,07,04,07,58,8.10
2018,07,04,07,59,3.20
2018,07,04,08,00,11.30
2018,07,04,08,01,12.90
2018,07,04,08,02,6.40
2018,07,04,08,03,3.20
2018,07,04,08,04,4.80
2018,07,04,08,05,9.60
2018,07,04,08,06,14.50
2018,07,04,08,07,12.90
2018,07,04,08,08,14.50
2018,07,04,08,09,19.30
2018,07,04,08,10,19.30
2018,07,04,08,11,14.50
2018,07,04,08,12,16.10
2018,07,04,08,13,8.10
2018,07,04,08,14,9.60
2018,07,04,08,15,9.60
2018,07,04,08,16,6.40
2018,07,04,08,17,4.80
2018,07,04,08,18,3.20
2018,07,04,08,19,4.80
2018,07,04,08,20,4.80
2018,07,04,08,21,3.20
2018,07,04,08,22,1.60
2018,07,04,08,25,8.10
2018,07,04,08,26,12.90
2018,07,04,08,27,12.90
2018,07,04,08,28,8.10
2018,07,04,08,29,12.90
2018,07,04,08,30,9.60
2018,07,04,08,31,9.60
2018,07,04,08,32,14.50
2018,07,04,08,33,16.10
2018,07,04,08,34,9.60
2018,07,04,08,35,12.90
2018,07,04,08,36,12.90
2018,07,04,08,37,8.10
2018,07,04,08,38,14.50
2018,07,04,08,39,14.50
2018,07,04,08,40,14.50
2018,07,04,08,41,12.90
2018,07,04,08,42,8.10
2018,07,04,08,43,14.50
2018,07,04,08,44,14.50
2018,07,04,08,45,9.60
2018,07,04,08,46,14.50
2018,07,04,08,47,14.50
2018,07,04,08,48,8.10
2018,07,04,08,49,12.90
2018,07,04,08,50,14.50
2018,07,04,08,51,14.50
2018,07,04,08,52,14.50
2018,07,04,08,53,14.50
2018,07,04,08,54,17.70
2018,07,04,08,55,16.10
2018,07,04,08,56,17.70
2018,07,04,08,57,16.10
2018,07,04,08,58,12.90
2018,07,04,08,59,6.40
2018,07,04,09,00,6.40
2018,07,04,09,01,9.60
2018,07,04,09,02,14.50
2018,07,04,09,03,9.60
2018,07,04,09,04,8.10
2018,07,04,09,05,9.60
2018,07,04,09,06,9.60
2018,07,04,09,07,12.90
2018,07,04,09,08,12.90
2018,07,04,09,09,12.90
2018,07,04,09,10,9.60
2018,07,04,09,11,3.20
2018,07,04,09,12,8.10
2018,07,04,09,13,14.50
2018,07,04,09,14,9.60
2018,07,04,09,15,8.10
2018,07,04,09,16,6.40
2018,07,04,09,17,1.60
2018,07,04,09,20,12.90
2018,07,04,09,21,9.60
2018,07,04,09,22,14.50
2018,07,04,09,23,9.60
2018,07,04,09,24,9.60
2018,07,04,09,25,16.10
2018,07,04,09,26,9.60
2018,07,04,09,27,6.40
2018,07,04,09,28,16.10
2018,07,04,09,29,14.50
2018,07,04,09,30,9.60
2018,07,04,09,31,8.10
2018,07,04,09,32,8.10
2018,07,04,09,33,8.10
2018,07,04,09,34,14.50
2018,07,04,09,35,9.60
2018,07,04,09,36,8.10
2018,07,04,09,37,9.60
2018,07,04,09,38,8.10
2018,07,04,09,39,8.10
2018,07,04,09,40,9.60
2018,07,04,09,41,14.50
2018,07,04,09,42,12.90
2018,07,04,09,43,9.60
2018,07,04,09,44,4.80
2018,07,04,09,45,4.80
2018,07,04,09,46,4.80
2018,07,04,09,47,12.90
2018,07,04,09,48,11.30
2018,07,04,09,49,14.50
2018,07,04,09,50,6.40
2018,07,04,09,51,11.30
2018,07,04,09,52,9.60
2018,07,04,09,53,8.10
2018,07,04,09,54,8.10
2018,07,04,09,55,12.90
2018,07,04,09,56,4.80
2018,07,04,09,57,6.40
2018,07,04,09,58,12.90
2018,07,04,09,59,12.90
2018,07,04,10,00,12.90
2018,07,04,10,01,6.40
2018,07,04,10,02,12.90
2018,07,04,10,03,12.90
2018,07,04,10,04,14.50
2018,07,04,10,05,12.90
2018,07,04,10,06,8.10
2018,07,04,10,07,3.20
2018,07,04,10,08,3.20
2018,07,04,10,09,6.40
2018,07,04,10,10,4.80
2018,07,04,10,11,8.10
2018,07,04,10,12,8.10
2018,07,04,10,13,9.60
2018,07,04,10,14,9.60
2018,07,04,10,15,9.60
2018,07,04,10,16,8.10
2018,07,04,10,17,8.10
2018,07,04,10,18,8.10
2018,07,04,10,19,6.40
2018,07,04,10,20,6.40
2018,07,04,10,21,8.10
2018,07,04,10,22,6.40
2018,07,04,10,23,4.80
2018,07,04,10,24,6.40
2018,07,04,10,25,11.30
2018,07,04,10,26,9.60
2018,07,04,10,27,4.80
2018,07,04,10,28,4.80
2018,07,04,10,29,3.20
2018,07,04,10,30,9.60
2018,07,04,10,31,11.30
2018,07,04,10,32,9.60
2018,07,04,10,33,6.40
2018,07,04,10,34,9.60
2018,07,04,10,35,6.40
2018,07,04,10,36,8.10
2018,07,04,10,37,3.20
2018,07,04,10,38,1.60
2018,07,04,10,39,9.60
2018,07,04,10,40,17.70
2018,07,04,10,41,16.10
2018,07,04,10,42,14.50
2018,07,04,10,43,16.10
2018,07,04,10,44,9.60
2018,07,04,10,45,14.50
2018,07,04,10,46,14.50
2018,07,04,10,47,12.90
2018,07,04,10,48,17.70
2018,07,04,10,49,12.90
2018,07,04,10,50,6.40
2018,07,04,10,51,8.10
2018,07,04,10,52,8.10
2018,07,04,10,53,8.10
2018,07,04,10,54,8.10
2018,07,04,10,55,6.40
2018,07,04,10,56,4.80
2018,07,04,10,57,11.30
2018,07,04,10,58,14.50
2018,07,04,10,59,6.40
2018,07,04,11,00,8.10
2018,07,04,11,01,8.10
2018,07,04,11,02,3.20
2018,07,04,11,03,4.80
2018,07,04,11,04,3.20
2018,07,04,11,05,1.60
2018,07,04,11,07,8.10
2018,07,04,11,08,8.10
2018,07,04,11,09,4.80
2018,07,04,11,10,1.60
2018,07,04,11,11,14.50
2018,07,04,11,12,8.10
2018,07,04,11,13,12.90
2018,07,04,11,14,20.90
2018,07,04,11,15,14.50
2018,07,04,11,16,8.10
2018,07,04,11,17,3.20
2018,07,04,11,18,3.20
2018,07,04,11,20,3.20
2018,07,04,11,21,6.40
2018,07,04,11,22,4.80
2018,07,04,11,23,1.60
2018,07,04,11,24,3.20
2018,07,04,11,25,12.90
2018,07,04,11,26,11.30
2018,07,04,11,27,8.10
2018,07,04,11,28,8.10
2018,07,04,11,29,12.90
2018,07,04,11,30,14.50
2018,07,04,11,31,14.50
2018,07,04,11,32,4.80
2018,07,04,11,33,8.10
2018,07,04,11,34,11.30
2018,07,04,11,35,9.60
2018,07,04,11,36,9.60
2018,07,04,11,37,9.60
2018,07,04,11,38,9.60
2018,07,04,11,39,24.20
2018,07,04,11,40,14.50
2018,07,04,11,41,4.80
2018,07,04,11,42,3.20
2018,07,04,11,43,8.10
2018,07,04,11,44,11.30
2018,07,04,11,45,8.10
2018,07,04,11,46,16.10
2018,07,04,11,47,14.50
2018,07,04,11,48,20.90
2018,07,04,11,49,12.90
2018,07,04,11,50,12.90
2018,07,04,11,51,12.90
2018,07,04,11,52,17.70
2018,07,04,11,53,14.50
2018,07,04,11,54,12.90
2018,07,04,11,55,14.50
2018,07,04,11,56,12.90
2018,07,04,11,57,16.10
2018,07,04,11,58,12.90
2018,07,04,11,59,20.90
2018,07,04,12,00,22.50
2018,07,04,12,01,25.70
2018,07,04,12,02,22.50
2018,07,04,12,03,24.20
2018,07,04,12,04,22.50
2018,07,04,12,05,19.30
2018,07,04,12,06,22.50
2018,07,04,12,07,19.30
2018,07,04,12,08,17.70
2018,07,04,12,09,16.10
2018,07,04,12,10,16.10
2018,07,04,12,11,14.50
2018,07,04,12,12,16.10
2018,07,04,12,13,22.50
2018,07,04,12,14,27.40
2018,07,04,12,15,24.20
2018,07,04,12,16,27.40
2018,07,04,12,17,25.70
2018,07,04,12,18,16.10
2018,07,04,12,19,24.20
2018,07,04,12,20,14.50
2018,07,04,12,21,16.10
2018,07,04,12,22,24.20
2018,07,04,12,23,22.50
2018,07,04,12,24,27.40
2018,07,04,12,25,40.20
2018,07,04,12,26,24.20
2018,07,04,12,27,22.50
2018,07,04,12,28,32.20
2018,07,04,12,29,30.60
2018,07,04,12,30,27.40
2018,07,04,12,31,17.70
2018,07,04,12,32,11.30
2018,07,04,12,33,11.30
2018,07,04,12,34,8.10
2018,07,04,12,35,11.30
2018,07,04,12,36,11.30
2018,07,04,12,37,29.00
2018,07,04,12,38,14.50
2018,07,04,12,39,24.20
2018,07,04,12,40,6.40
2018,07,04,12,41,8.10
2018,07,04,12,42,16.10
2018,07,04,12,43,16.10
2018,07,04,12,44,12.90
2018,07,04,12,45,19.30
2018,07,04,12,46,27.40
2018,07,04,12,47,29.00
2018,07,04,12,48,27.40
2018,07,04,12,49,22.50
2018,07,04,12,50,30.60
2018,07,04,12,51,30.60
2018,07,04,12,52,25.70
2018,07,04,12,53,30.60
2018,07,04,12,54,27.40
2018,07,04,12,55,24.20
2018,07,04,12,56,19.30
2018,07,04,12,57,27.40
2018,07,04,12,58,22.50
2018,07,04,12,59,19.30
2018,07,04,13,00,22.50
2018,07,04,13,01,20.90
2018,07,04,13,02,12.90
2018,07,04,13,03,19.30
2018,07,04,13,04,22.50
2018,07,04,13,05,24.20
2018,07,04,13,06,24.20
2018,07,04,13,07,30.60
2018,07,04,13,08,20.90
2018,07,04,13,09,16.10
2018,07,04,13,10,22.50
2018,07,04,13,11,19.30
2018,07,04,13,12,22.50
2018,07,04,13,13,22.50
2018,07,04,13,14,17.70
2018,07,04,13,15,25.70
2018,07,04,13,16,27.40
2018,07,04,13,17,17.70
2018,07,04,13,18,17.70
2018,07,04,13,19,16.10
2018,07,04,13,20,32.20
2018,07,04,13,21,27.40
2018,07,04,13,22,24.20
2018,07,04,13,23,22.50
2018,07,04,13,24,16.10
2018,07,04,13,25,22.50
2018,07,04,13,26,20.90
2018,07,04,13,27,22.50
2018,07,04,13,28,20.90
2018,07,04,13,29,14.50
2018,07,04,13,30,27.40
2018,07,04,13,31,25.70
2018,07,04,13,32,24.20
2018,07,04,13,33,24.20
2018,07,04,13,34,24.20
2018,07,04,13,35,27.40
2018,07,04,13,36,17.70
2018,07,04,13,37,16.10
2018,07,04,13,38,17.70
2018,07,04,13,39,16.10
2018,07,04,13,40,11.30
2018,07,04,13,41,12.90
2018,07,04,13,42,4.80
2018,07,04,13,43,16.10
2018,07,04,13,44,14.50
2018,07,04,13,45,22.50
2018,07,04,13,46,17.70
2018,07,04,13,47,16.10
2018,07,04,13,48,8.10
2018,07,04,13,49,11.30
2018,07,04,13,50,19.30
2018,07,04,13,51,19.30
2018,07,04,13,52,12.90
2018,07,04,13,53,19.30
2018,07,04,13,54,19.30
2018,07,04,13,55,22.50
2018,07,04,13,56,19.30
2018,07,04,13,57,17.70
2018,07,04,13,58,22.50
2018,07,04,13,59,12.90
2018,07,04,14,00,16.10
2018,07,04,14,01,12.90
2018,07,04,14,02,12.90
2018,07,04,14,03,12.90
2018,07,04,14,04,11.30
2018,07,04,14,05,11.30
2018,07,04,14,06,20.90
2018,07,04,14,07,22.50
2018,07,04,14,08,22.50
2018,07,04,14,09,22.50
2018,07,04,14,10,14.50
2018,07,04,14,11,22.50
2018,07,04,14,12,20.90
2018,07,04,14,13,24.20
2018,07,04,14,14,17.70
2018,07,04,14,15,19.30
2018,07,04,14,16,25.70
2018,07,04,14,17,19.30
2018,07,04,14,18,11.30
2018,07,04,14,19,12.90
2018,07,04,14,20,11.30
2018,07,04,14,21,9.60
2018,07,04,14,22,25.70
2018,07,04,14,23,9.60
2018,07,04,14,24,22.50
2018,07,04,14,25,25.70
2018,07,04,14,26,19.30
2018,07,04,14,27,33.80
2018,07,04,14,28,32.20
2018,07,04,14,29,27.40
2018,07,04,14,30,27.40
2018,07,04,14,31,17.70
2018,07,04,14,32,25.70
2018,07,04,14,33,17.70
2018,07,04,14,34,14.50
2018,07,04,14,35,20.90
2018,07,04,14,36,20.90
2018,07,04,14,37,20.90
2018,07,04,14,38,25.70
2018,07,04,14,39,33.80
2018,07,04,14,40,27.40
2018,07,04,14,41,14.50
2018,07,04,14,42,20.90
2018,07,04,14,43,17.70
2018,07,04,14,44,14.50
2018,07,04,14,45,19.30
2018,07,04,14,46,14.50
2018,07,04,14,47,16.10
2018,07,04,14,48,19.30
2018,07,04,14,49,19.30
2018,07,04,14,50,12.90
2018,07,04,14,51,8.10
2018,07,04,14,52,4.80
2018,07,04,14,53,6.40
2018,07,04,14,54,12.90
2018,07,04,14,55,16.10
2018,07,04,14,56,14.50
2018,07,04,14,57,8.10
2018,07,04,14,58,14.50
2018,07,04,14,59,20.90
2018,07,04,15,00,16.10
2018,07,04,15,01,11.30
2018,07,04,15,02,3.20
2018,07,04,15,03,3.20
2018,07,04,15,04,9.60
2018,07,04,15,05,12.90
2018,07,04,15,06,8.10
2018,07,04,15,07,1.60
2018,07,04,15,08,6.40
2018,07,04,15,09,4.80
2018,07,04,15,10,3.20
2018,07,04,15,11,3.20
2018,07,04,15,12,8.10
2018,07,04,15,13,3.20
2018,07,04,15,14,4.80
2018,07,04,15,15,19.30
2018,07,04,15,16,22.50
2018,07,04,15,17,12.90
2018,07,04,15,18,12.90
2018,07,04,15,19,12.90
2018,07,04,15,20,20.90
2018,07,04,15,21,20.90
2018,07,04,15,22,22.50
2018,07,04,15,23,20.90
2018,07,04,15,24,17.70
2018,07,04,15,25,11.30
2018,07,04,15,26,4.80
2018,07,04,15,27,8.10
2018,07,04,15,28,20.90
2018,07,04,15,29,20.90
2018,07,04,15,30,8.10
2018,07,04,15,31,16.10
2018,07,04,15,32,24.20
2018,07,04,15,33,25.70
2018,07,04,15,34,20.90
2018,07,04,15,35,22.50
2018,07,04,15,36,20.90
2018,07,04,15,37,22.50
2018,07,04,15,38,19.30
2018,07,04,15,39,17.70
2018,07,04,15,40,19.30
2018,07,04,15,41,14.50
2018,07,04,15,42,6.40
2018,07,04,15,43,9.60
2018,07,04,15,44,16.10
2018,07,04,15,45,20.90
2018,07,04,15,46,19.30
2018,07,04,15,47,17.70
2018,07,04,15,48,12.90
2018,07,04,15,49,16.10
2018,07,04,15,50,6.40
2018,07,04,15,51,16.10
2018,07,04,15,52,12.90
2018,07,04,15,53,20.90
2018,07,04,15,54,25.70
2018,07,04,15,55,17.70
2018,07,04,15,56,14.50
2018,07,04,15,57,14.50
2018,07,04,15,58,17.70
2018,07,04,15,59,24.20
2018,07,04,16,00,12.90
2018,07,04,16,01,11.30
2018,07,04,16,02,14.50
2018,07,04,16,03,12.90
2018,07,04,16,04,11.30
2018,07,04,16,05,17.70
2018,07,04,16,06,19.30
2018,07,04,16,07,17.70
2018,07,04,16,08,19.30
2018,07,04,16,09,17.70
2018,07,04,16,10,12.90
2018,07,04,16,11,11.30
2018,07,04,16,12,4.80
2018,07,04,16,13,4.80
2018,07,04,16,14,4.80
2018,07,04,16,15,12.90
2018,07,04,16,16,12.90
2018,07,04,16,17,12.90
2018,07,04,16,18,17.70
2018,07,04,16,19,12.90
2018,07,04,16,20,8.10
2018,07,04,16,21,4.80
2018,07,04,16,22,4.80
2018,07,04,16,23,12.90
2018,07,04,16,24,19.30
2018,07,04,16,25,19.30
2018,07,04,16,26,8.10
2018,07,04,16,27,6.40
2018,07,04,16,28,6.40
2018,07,04,16,29,3.20
2018,07,04,16,30,11.30
2018,07,04,16,31,11.30
2018,07,04,16,32,3.20
2018,07,04,16,33,8.10
2018,07,04,16,34,4.80
2018,07,04,16,35,12.90
2018,07,04,16,36,3.20
2018,07,04,16,37,6.40
2018,07,04,16,38,12.90
2018,07,04,16,39,14.50
2018,07,04,16,40,12.90
2018,07,04,16,41,11.30
2018,07,04,16,42,8.10
2018,07,04,16,43,9.60
2018,07,04,16,44,6.40
2018,07,04,16,45,9.60
2018,07,04,16,46,4.80
2018,07,04,16,47,6.40
2018,07,04,16,48,6.40
2018,07,04,16,49,4.80
2018,07,04,16,50,8.10
2018,07,04,16,51,8.10
2018,07,04,16,52,1.60
2018,07,04,16,53,4.80
2018,07,04,16,54,8.10
2018,07,04,16,55,6.40
2018,07,04,16,56,4.80
2018,07,04,16,57,1.60
2018,07,04,16,58,1.60
2018,07,04,16,59,1.60
2018,07,04,17,00,3.20
2018,07,04,17,01,8.10
2018,07,04,17,02,17.70
2018,07,04,17,03,4.80
2018,07,04,17,04,3.20
2018,07,04,17,05,1.60
2018,07,04,17,06,4.80
2018,07,04,17,07,3.20
2018,07,04,17,08,8.10
2018,07,04,17,09,11.30
2018,07,04,17,10,8.10
2018,07,04,17,11,4.80
2018,07,04,17,12,4.80
2018,07,04,17,13,6.40
2018,07,04,17,14,4.80
2018,07,04,17,15,4.80
2018,07,04,17,16,4.80
2018,07,04,17,17,14.50
2018,07,04,17,18,8.10
2018,07,04,17,19,8.10
2018,07,04,17,20,6.40
2018,07,04,17,21,4.80
2018,07,04,17,22,3.20
2018,07,04,17,23,1.60
2018,07,04,17,24,1.60
2018,07,04,17,25,3.20
2018,07,04,17,26,8.10
2018,07,04,17,27,17.70
2018,07,04,17,28,16.10
2018,07,04,17,29,11.30
2018,07,04,17,30,12.90
2018,07,04,17,31,8.10
2018,07,04,17,32,3.20
2018,07,04,17,33,4.80
2018,07,04,17,34,4.80
2018,07,04,17,35,3.20
2018,07,04,17,36,3.20
2018,07,04,17,38,4.80
2018,07,04,17,39,6.40
2018,07,04,17,40,4.80
2018,07,04,17,41,4.80
2018,07,04,17,42,6.40
2018,07,04,17,43,1.60
2018,07,04,17,44,1.60
2018,07,04,17,45,1.60
2018,07,04,17,47,4.80
2018,07,04,17,48,9.60
2018,07,04,17,49,3.20
2018,07,04,17,50,6.40
2018,07,04,17,51,6.40
2018,07,04,17,52,1.60
2018,07,04,17,53,3.20
2018,07,04,17,54,4.80
2018,07,04,17,55,3.20
2018,07,04,17,56,4.80
2018,07,04,17,57,1.60
2018,07,04,18,06,4.80
2018,07,04,18,14,6.40
2018,07,04,18,15,6.40
2018,07,04,18,16,3.20
2018,07,04,18,17,3.20
2018,07,04,18,18,1.60
2018,07,04,18,21,4.80
2018,07,04,18,22,3.20
2018,07,04,18,23,1.60
2018,07,04,18,24,17.70
2018,07,04,18,25,16.10
2018,07,04,18,26,16.10
2018,07,04,18,27,12.90
2018,07,04,18,28,14.50
2018,07,04,18,29,17.70
2018,07,04,18,30,16.10
2018,07,04,18,31,9.60
2018,07,04,18,32,9.60
2018,07,04,18,33,17.70
2018,07,04,18,34,14.50
2018,07,04,18,35,8.10
2018,07,04,18,36,17.70
2018,07,04,18,37,17.70
2018,07,04,18,38,20.90
2018,07,04,18,39,19.30
2018,07,04,18,40,14.50
2018,07,04,18,41,9.60
2018,07,04,18,42,16.10
2018,07,04,18,43,17.70
2018,07,04,18,44,12.90
2018,07,04,18,45,22.50
2018,07,04,18,46,24.20
2018,07,04,18,47,20.90
2018,07,04,18,48,24.20
2018,07,04,18,49,27.40
2018,07,04,18,50,24.20
2018,07,04,18,51,19.30
2018,07,04,18,52,17.70
2018,07,04,18,53,16.10
2018,07,04,18,54,14.50
2018,07,04,18,55,17.70
2018,07,04,18,56,29.00
2018,07,04,18,57,20.90
2018,07,04,18,58,30.60
2018,07,04,18,59,43.50
2018,07,04,19,00,49.90
2018,07,04,19,01,32.20
2018,07,04,19,02,30.60
2018,07,04,19,03,40.20
2018,07,04,19,04,41.80
2018,07,04,19,05,45.10
2018,07,04,19,06,17.70
2018,07,04,19,07,33.80
2018,07,04,19,08,22.50
2018,07,04,19,09,32.20
2018,07,04,19,10,25.70
2018,07,04,19,11,35.40
2018,07,04,19,12,32.20
2018,07,04,19,13,38.60
2018,07,04,19,14,27.40
2018,07,04,19,15,49.90
2018,07,04,19,16,43.50
2018,07,04,19,17,35.40
2018,07,04,19,18,22.50
2018,07,04,19,19,30.60
2018,07,04,19,20,25.70
2018,07,04,19,21,29.00
2018,07,04,19,22,38.60
2018,07,04,19,23,30.60
2018,07,04,19,24,27.40
2018,07,04,19,25,35.40
2018,07,04,19,26,25.70
2018,07,04,19,27,19.30
2018,07,04,19,28,25.70
2018,07,04,19,29,20.90
2018,07,04,19,30,24.20
2018,07,04,19,31,27.40
2018,07,04,19,32,16.10
2018,07,04,19,33,17.70
2018,07,04,19,34,17.70
2018,07,04,19,35,17.70
2018,07,04,19,36,14.50
2018,07,04,19,37,16.10
2018,07,04,19,38,14.50
2018,07,04,19,39,17.70
2018,07,04,19,40,14.50
2018,07,04,19,41,12.90
2018,07,04,19,42,12.90
2018,07,04,19,43,16.10
2018,07,04,19,44,8.10
2018,07,04,19,45,37.00
2018,07,04,19,46,22.50
2018,07,04,19,47,20.90
2018,07,04,19,48,17.70
2018,07,04,19,49,20.90
2018,07,04,19,50,27.40
2018,07,04,19,51,19.30
2018,07,04,19,52,14.50
2018,07,04,19,53,11.30
2018,07,04,19,54,11.30
2018,07,04,19,55,12.90
2018,07,04,19,56,24.20
2018,07,04,19,57,11.30
2018,07,04,19,58,6.40
2018,07,04,19,59,14.50
2018,07,04,20,00,16.10
2018,07,04,20,01,9.60
2018,07,04,20,02,11.30
2018,07,04,20,03,16.10
2018,07,04,20,04,3.20
2018,07,04,20,05,8.10
2018,07,04,20,06,1.60
2018,07,04,20,07,8.10
2018,07,04,20,08,9.60
2018,07,04,20,09,8.10
2018,07,04,20,10,9.60
2018,07,04,20,11,8.10
2018,07,04,20,12,4.80
2018,07,04,20,13,6.40
2018,07,04,20,14,4.80
2018,07,04,20,15,3.20
2018,07,04,20,16,6.40
2018,07,04,20,17,6.40
2018,07,04,20,18,8.10
2018,07,04,20,19,6.40
2018,07,04,20,20,3.20
2018,07,04,20,21,1.60
2018,07,04,20,22,8.10
2018,07,04,20,23,8.10
2018,07,04,20,24,9.60
2018,07,04,20,25,11.30
2018,07,04,20,26,8.10
2018,07,04,20,27,12.90
2018,07,04,20,28,6.40
2018,07,04,20,29,8.10
2018,07,04,20,30,4.80
2018,07,04,20,31,3.20
2018,07,04,20,32,4.80
2018,07,04,20,35,3.20
2018,07,04,20,36,3.20
2018,07,04,20,43,6.40
2018,07,04,20,44,6.40
2018,07,04,20,45,6.40
2018,07,04,20,46,4.80
2018,07,04,20,47,4.80
2018,07,04,20,48,9.60
2018,07,04,20,49,12.90
2018,07,04,20,50,12.90
2018,07,04,20,51,8.10
2018,07,04,20,52,9.60
2018,07,04,20,53,8.10
2018,07,04,20,54,4.80
2018,07,04,20,55,6.40
2018,07,04,20,56,6.40
2018,07,04,20,57,8.10
2018,07,04,20,58,9.60
2018,07,04,20,59,6.40
2018,07,04,21,00,8.10
2018,07,04,21,01,4.80
2018,07,04,21,02,9.60
2018,07,04,21,03,8.10
2018,07,04,21,04,8.10
2018,07,04,21,05,8.10
2018,07,04,21,06,9.60
2018,07,04,21,07,9.60
2018,07,04,21,08,8.10
2018,07,04,21,09,8.10
2018,07,04,21,10,6.40
2018,07,04,21,11,9.60
2018,07,04,21,12,6.40
2018,07,04,21,13,8.10
2018,07,04,21,14,8.10
2018,07,04,21,15,9.60
2018,07,04,21,16,6.40
2018,07,04,21,17,4.80
2018,07,04,21,18,1.60
2018,07,04,21,19,1.60
2018,07,04,21,21,8.10
2018,07,04,21,22,6.40
2018,07,04,21,23,4.80
2018,07,04,21,24,1.60
2018,07,04,21,25,1.60
2018,07,04,21,26,1.60
2018,07,04,21,28,3.20
2018,07,04,21,32,4.80
2018,07,04,21,33,3.20
2018,07,04,21,43,3.20
2018,07,04,21,44,1.60
2018,07,04,21,46,1.60
2018,07,04,21,47,3.20
2018,07,04,23,58,6.40
